Time,TemperatureF,DewpointF,PressureIn,WindDirection,WindDirectionDegrees,WindSpeedMPH,WindSpeedGustMPH,Humidity,HourlyPrecipIn,Conditions,Clouds,dailyrainin,SoftwareType,DateUTC
2013-04-04 00:13:00,53.9,51.0,30.05,NW,322,2.0,6.0,90,0.00,,,0.00,weatherlink.com 1.10,2013-04-04 05:13:00,
2013-04-04 00:28:00,53.8,51.0,30.05,WNW,290,1.0,4.0,91,0.00,,,0.00,weatherlink.com 1.10,2013-04-04 05:28:00,
2013-04-04 00:59:00,53.2,51.0,30.05,North,356,2.0,3.0,92,0.00,,,0.00,weatherlink.com 1.10,2013-04-04 05:59:00,
2013-04-04 01:14:00,53.0,51.0,30.05,WNW,293,1.0,3.0,91,0.00,,,0.00,weatherlink.com 1.10,2013-04-04 06:14:00,
2013-04-04 01:29:00,53.1,51.0,30.05,WNW,294,1.0,2.0,92,0.00,,,0.00,weatherlink.com 1.10,2013-04-04 06:29:00,
2013-04-04 01:44:00,52.9,51.0,30.05,North,5,2.0,2.0,92,0.00,,,0.00,weatherlink.com 1.10,2013-04-04 06:44:00,
2013-04-04 01:59:00,52.9,51.0,30.05,NNW,335,2.0,5.0,92,0.00,,,0.00,weatherlink.com 1.10,2013-04-04 06:59:00,
2013-04-04 02:14:00,52.7,51.0,30.04,WNW,302,1.0,2.0,92,0.00,,,0.00,weatherlink.com 1.10,2013-04-04 07:14:00,
2013-04-04 02:29:00,52.6,50.0,30.04,NW,307,1.0,3.0,92,0.00,,,0.00,weatherlink.com 1.10,2013-04-04 07:29:00,
2013-04-04 02:44:00,52.3,50.0,30.04,NW,316,0.0,2.0,93,0.00,,,0.00,weatherlink.com 1.10,2013-04-04 07:44:00,
2013-04-04 03:14:00,52.0,50.0,30.02,NW,305,0.0,4.0,93,0.00,,,0.00,weatherlink.com 1.10,2013-04-04 08:14:00,
2013-04-04 03:29:00,51.9,50.0,30.02,NW,311,1.0,7.0,94,0.00,,,0.00,weatherlink.com 1.10,2013-04-04 08:29:00,
2013-04-04 03:44:00,51.7,50.0,30.01,NNW,328,1.0,8.0,94,0.00,,,0.00,weatherlink.com 1.10,2013-04-04 08:44:00,
2013-04-04 03:59:00,51.9,50.0,30.00,NNE,13,1.0,4.0,93,0.00,,,0.00,weatherlink.com 1.10,2013-04-04 08:59:00,
2013-04-04 04:14:00,51.8,50.0,30.00,West,270,1.0,3.0,93,0.00,,,0.00,weatherlink.com 1.10,2013-04-04 09:14:00,
2013-04-04 04:29:00,51.8,50.0,30.01,WNW,291,1.0,3.0,93,0.00,,,0.00,weatherlink.com 1.10,2013-04-04 09:29:00,
2013-04-04 04:44:00,51.8,50.0,30.02,NW,314,1.0,3.0,93,0.00,,,0.00,weatherlink.com 1.10,2013-04-04 09:44:00,
2013-04-04 04:59:00,51.9,50.0,30.01,NW,319,2.0,5.0,93,0.00,,,0.00,weatherlink.com 1.10,2013-04-04 09:59:00,
2013-04-04 05:14:00,52.0,50.0,30.02,WNW,288,1.0,5.0,92,0.00,,,0.00,weatherlink.com 1.10,2013-04-04 10:14:00,
2013-04-04 05:29:00,52.0,50.0,30.02,NNW,338,0.0,3.0,92,0.00,,,0.00,weatherlink.com 1.10,2013-04-04 10:29:00,
2013-04-04 05:44:00,52.1,50.0,30.03,NW,309,1.0,4.0,92,0.00,,,0.00,weatherlink.com 1.10,2013-04-04 10:44:00,
2013-04-04 05:59:00,52.1,50.0,30.03,NW,305,1.0,4.0,92,0.00,,,0.00,weatherlink.com 1.10,2013-04-04 10:59:00,
2013-04-04 06:14:00,52.1,50.0,30.04,NW,321,0.0,4.0,92,0.00,,,0.00,weatherlink.com 1.10,2013-04-04 11:14:00,
2013-04-04 06:29:00,52.1,50.0,30.04,NW,314,1.0,7.0,92,0.00,,,0.00,weatherlink.com 1.10,2013-04-04 11:29:00,
2013-04-04 06:44:00,52.2,50.0,30.05,NNE,32,5.0,6.0,91,0.00,,,0.00,weatherlink.com 1.10,2013-04-04 11:44:00,
2013-04-04 06:59:00,52.4,50.0,30.05,NW,312,1.0,5.0,90,0.00,,,0.00,weatherlink.com 1.10,2013-04-04 11:59:00,
2013-04-04 07:29:00,52.0,50.0,30.07,NW,305,1.0,4.0,91,0.00,,,0.00,weatherlink.com 1.10,2013-04-04 12:29:00,
2013-04-04 07:44:00,51.6,49.0,30.08,WNW,297,1.0,4.0,92,0.00,,,0.00,weatherlink.com 1.10,2013-04-04 12:44:00,
2013-04-04 07:59:00,51.8,50.0,30.08,West,263,1.0,5.0,92,0.00,,,0.00,weatherlink.com 1.10,2013-04-04 12:59:00,
2013-04-04 08:14:00,51.9,49.0,30.09,NW,319,1.0,5.0,90,0.00,,,0.00,weatherlink.com 1.10,2013-04-04 13:14:00,
2013-04-04 08:29:00,52.0,49.0,30.09,NW,307,1.0,7.0,90,0.00,,,0.00,weatherlink.com 1.10,2013-04-04 13:29:00,
2013-04-04 08:44:00,52.2,49.0,30.10,North,352,2.0,4.0,89,0.00,,,0.00,weatherlink.com 1.10,2013-04-04 13:44:00,
2013-04-04 08:59:00,52.3,49.0,30.10,NW,309,1.0,6.0,88,0.00,,,0.00,weatherlink.com 1.10,2013-04-04 13:59:00,
2013-04-04 09:14:00,52.3,49.0,30.11,NW,312,3.0,5.0,88,0.00,,,0.00,weatherlink.com 1.10,2013-04-04 14:14:00,
2013-04-04 09:44:00,53.1,49.0,30.11,WNW,294,2.0,7.0,87,0.00,,,0.00,weatherlink.com 1.10,2013-04-04 14:44:00,
2013-04-04 10:14:00,53.9,50.0,30.11,WSW,242,2.0,6.0,85,0.00,,,0.00,weatherlink.com 1.10,2013-04-04 15:14:00,
2013-04-04 10:29:00,53.9,50.0,30.11,WNW,302,3.0,7.0,85,0.00,,,0.00,weatherlink.com 1.10,2013-04-04 15:29:00,
2013-04-04 10:45:00,54.5,50.0,30.12,North,5,4.0,7.0,86,0.00,,,0.00,weatherlink.com 1.10,2013-04-04 15:45:00,
2013-04-04 11:00:00,55.6,51.0,30.12,NW,308,6.0,11.0,83,0.00,,,0.00,weatherlink.com 1.10,2013-04-04 16:00:00,
2013-04-04 11:15:00,56.6,51.0,30.12,NNE,15,2.0,8.0,81,0.00,,,0.00,weatherlink.com 1.10,2013-04-04 16:15:00,
2013-04-04 11:30:00,55.6,50.0,30.12,NW,305,6.0,10.0,81,0.00,,,0.00,weatherlink.com 1.10,2013-04-04 16:30:00,
2013-04-04 11:45:00,55.2,49.0,30.11,NNW,331,1.0,8.0,80,0.00,,,0.00,weatherlink.com 1.10,2013-04-04 16:45:00,
2013-04-04 12:00:00,55.0,49.0,30.11,West,270,3.0,6.0,81,0.00,,,0.00,weatherlink.com 1.10,2013-04-04 17:00:00,
2013-04-04 12:30:00,56.5,50.0,30.11,WNW,290,2.0,7.0,78,0.00,,,0.00,weatherlink.com 1.10,2013-04-04 17:30:00,
2013-04-04 12:45:00,56.4,50.0,30.10,WNW,298,2.0,6.0,78,0.00,,,0.00,weatherlink.com 1.10,2013-04-04 17:45:00,
2013-04-04 13:00:00,56.7,50.0,30.10,WNW,299,1.0,9.0,77,0.00,,,0.00,weatherlink.com 1.10,2013-04-04 18:00:00,
2013-04-04 13:15:00,57.1,49.0,30.10,NNW,346,2.0,7.0,74,0.00,,,0.00,weatherlink.com 1.10,2013-04-04 18:15:00,
2013-04-04 13:30:00,58.0,50.0,30.09,WNW,293,4.0,10.0,74,0.00,,,0.00,weatherlink.com 1.10,2013-04-04 18:30:00,
2013-04-04 13:45:00,58.2,49.0,30.09,NW,313,2.0,10.0,72,0.00,,,0.00,weatherlink.com 1.10,2013-04-04 18:45:00,
2013-04-04 14:00:00,57.7,49.0,30.08,West,278,6.0,10.0,72,0.00,,,0.00,weatherlink.com 1.10,2013-04-04 19:00:00,
2013-04-04 14:15:00,57.6,48.0,30.08,NW,315,5.0,9.0,71,0.00,,,0.00,weatherlink.com 1.10,2013-04-04 19:15:00,
2013-04-04 14:30:00,57.1,49.0,30.08,WNW,290,4.0,6.0,74,0.00,,,0.00,weatherlink.com 1.10,2013-04-04 19:30:00,
2013-04-04 14:45:00,57.3,49.0,30.07,NNW,331,2.0,10.0,74,0.00,,,0.00,weatherlink.com 1.10,2013-04-04 19:45:00,
2013-04-04 15:01:00,56.5,49.0,30.07,WSW,242,1.0,10.0,75,0.00,,,0.00,weatherlink.com 1.10,2013-04-04 20:01:00,
2013-04-04 15:15:00,56.4,48.0,30.07,NW,305,7.0,10.0,73,0.00,,,0.00,weatherlink.com 1.10,2013-04-04 20:15:00,
2013-04-04 15:30:00,57.0,48.0,30.06,North,349,2.0,9.0,73,0.00,,,0.00,weatherlink.com 1.10,2013-04-04 20:30:00,
2013-04-04 15:45:00,57.9,49.0,30.06,NE,53,3.0,10.0,71,0.00,,,0.00,weatherlink.com 1.10,2013-04-04 20:45:00,
2013-04-04 16:00:00,58.2,48.0,30.05,WNW,286,10.0,10.0,70,0.00,,,0.00,weatherlink.com 1.10,2013-04-04 21:00:00,
2013-04-04 16:15:00,58.5,48.0,30.05,WNW,302,3.0,10.0,69,0.00,,,0.00,weatherlink.com 1.10,2013-04-04 21:15:00,
2013-04-04 16:30:00,58.2,48.0,30.05,NNW,328,3.0,8.0,69,0.00,,,0.00,weatherlink.com 1.10,2013-04-04 21:30:00,
2013-04-04 16:45:00,57.0,47.0,30.05,NW,307,2.0,7.0,70,0.00,,,0.00,weatherlink.com 1.10,2013-04-04 21:45:00,
2013-04-04 17:00:00,56.7,47.0,30.06,WNW,293,4.0,9.0,71,0.00,,,0.00,weatherlink.com 1.10,2013-04-04 22:00:00,
2013-04-04 17:15:00,55.7,48.0,30.06,NNW,328,2.0,5.0,74,0.00,,,0.00,weatherlink.com 1.10,2013-04-04 22:15:00,
2013-04-04 17:31:00,55.1,47.0,30.06,NNW,335,1.0,11.0,75,0.00,,,0.00,weatherlink.com 1.10,2013-04-04 22:31:00,
2013-04-04 17:45:00,54.4,47.0,30.07,NW,319,3.0,11.0,76,0.00,,,0.00,weatherlink.com 1.10,2013-04-04 22:45:00,
2013-04-04 18:00:00,54.1,47.0,30.07,NNW,347,4.0,8.0,76,0.00,,,0.00,weatherlink.com 1.10,2013-04-04 23:00:00,
2013-04-04 18:15:00,53.9,47.0,30.07,NW,310,1.0,5.0,77,0.00,,,0.00,weatherlink.com 1.10,2013-04-04 23:15:00,
2013-04-04 18:30:00,53.6,47.0,30.08,NNE,23,5.0,10.0,77,0.00,,,0.00,weatherlink.com 1.10,2013-04-04 23:30:00,
2013-04-04 18:45:00,53.5,46.0,30.08,NNW,328,1.0,7.0,77,0.00,,,0.00,weatherlink.com 1.10,2013-04-04 23:45:00,
2013-04-04 19:00:00,53.2,46.0,30.08,North,354,4.0,5.0,77,0.00,,,0.00,weatherlink.com 1.10,2013-04-05 00:00:00,
2013-04-04 19:15:00,52.9,46.0,30.09,NW,317,0.0,9.0,77,0.00,,,0.00,weatherlink.com 1.10,2013-04-05 00:15:00,
2013-04-04 19:31:00,52.7,46.0,30.09,NNW,329,1.0,3.0,77,0.00,,,0.00,weatherlink.com 1.10,2013-04-05 00:31:00,
2013-04-04 19:46:00,52.6,45.0,30.10,NNE,26,3.0,7.0,76,0.00,,,0.00,weatherlink.com 1.10,2013-04-05 00:46:00,
2013-04-04 20:01:00,52.6,46.0,30.10,NNW,342,3.0,8.0,77,0.00,,,0.00,weatherlink.com 1.10,2013-04-05 01:01:00,
2013-04-04 20:16:00,52.5,45.0,30.11,NNW,328,2.0,8.0,76,0.00,,,0.00,weatherlink.com 1.10,2013-04-05 01:16:00,
2013-04-04 20:31:00,52.5,45.0,30.11,NW,308,2.0,6.0,76,0.00,,,0.00,weatherlink.com 1.10,2013-04-05 01:31:00,
2013-04-04 20:46:00,52.5,45.0,30.11,North,359,2.0,6.0,76,0.00,,,0.00,weatherlink.com 1.10,2013-04-05 01:46:00,
2013-04-04 21:31:00,52.4,46.0,30.13,NW,316,0.0,4.0,78,0.00,,,0.00,weatherlink.com 1.10,2013-04-05 02:31:00,
2013-04-04 22:01:00,52.2,45.0,30.15,NW,317,1.0,6.0,77,0.00,,,0.00,weatherlink.com 1.10,2013-04-05 03:01:00,
2013-04-04 22:16:00,52.2,45.0,30.15,NNW,328,0.0,7.0,77,0.00,,,0.00,weatherlink.com 1.10,2013-04-05 03:16:00,
2013-04-04 22:46:00,52.0,45.0,30.16,North,357,1.0,9.0,77,0.00,,,0.00,weatherlink.com 1.10,2013-04-05 03:46:00,
2013-04-04 23:01:00,51.9,45.0,30.16,NNW,335,2.0,9.0,76,0.00,,,0.00,weatherlink.com 1.10,2013-04-05 04:01:00,
2013-04-04 23:31:00,51.6,45.0,30.16,NNE,20,3.0,6.0,78,0.00,,,0.00,weatherlink.com 1.10,2013-04-05 04:31:00,
2013-04-04 23:46:00,51.6,45.0,30.17,NNW,346,1.0,5.0,77,0.00,,,0.00,weatherlink.com 1.10,2013-04-05 04:46:00,